Time,TemperatureF,DewpointF,PressureIn,WindDirection,WindDirectionDegrees,WindSpeedMPH,WindSpeedGustMPH,Humidity,HourlyPrecipIn,Conditions,Clouds,dailyrainin,SolarRadiationWatts/m^2,SoftwareType,DateUTC
2013-04-12 00:08:00,38.9,36.0,29.91,ENE,78,0.0,1.0,90,0.01,,,0.04,0,weatherlink.com 1.10,2013-04-12 06:08:00,
2013-04-12 00:23:00,39.1,37.0,29.91,ENE,78,0.0,0.0,91,0.01,,,0.04,0,weatherlink.com 1.10,2013-04-12 06:23:00,
2013-04-12 00:38:00,39.5,37.0,29.91,ESE,113,1.0,2.0,89,0.01,,,0.04,0,weatherlink.com 1.10,2013-04-12 06:38:00,
2013-04-12 00:53:00,40.0,36.0,29.91,South,177,4.0,5.0,84,0.01,,,0.04,0,weatherlink.com 1.10,2013-04-12 06:53:00,
2013-04-12 01:08:00,40.3,35.0,29.91,SSE,161,1.0,5.0,80,0.00,,,0.04,0,weatherlink.com 1.10,2013-04-12 07:08:00,
2013-04-12 01:23:00,40.2,35.0,29.91,SSE,159,0.0,4.0,80,0.00,,,0.00,0,weatherlink.com 1.10,2013-04-12 07:23:00,
2013-04-12 01:38:00,39.9,34.0,29.90,SSE,157,1.0,2.0,80,0.00,,,0.00,0,weatherlink.com 1.10,2013-04-12 07:38:00,
2013-04-12 01:53:00,39.6,34.0,29.90,SSE,157,0.0,2.0,81,0.00,,,0.00,0,weatherlink.com 1.10,2013-04-12 07:53:00,
2013-04-12 02:08:00,39.3,34.0,29.89,SSE,157,0.0,2.0,81,0.00,,,0.00,0,weatherlink.com 1.10,2013-04-12 08:08:00,
2013-04-12 02:23:00,38.8,34.0,29.89,SSE,157,0.0,2.0,82,0.00,,,0.00,0,weatherlink.com 1.10,2013-04-12 08:23:00,
2013-04-12 02:38:00,39.2,33.0,29.88,SSE,156,3.0,4.0,79,0.00,,,0.00,0,weatherlink.com 1.10,2013-04-12 08:38:00,
2013-04-12 02:53:00,39.2,33.0,29.89,SSW,201,0.0,4.0,78,0.00,,,0.00,0,weatherlink.com 1.10,2013-04-12 08:53:00,
2013-04-12 03:08:00,39.2,33.0,29.88,SSW,201,1.0,2.0,77,0.00,,,0.00,0,weatherlink.com 1.10,2013-04-12 09:08:00,
2013-04-12 03:24:00,39.1,33.0,29.87,SSW,201,0.0,2.0,78,0.00,,,0.00,0,weatherlink.com 1.10,2013-04-12 09:24:00,
2013-04-12 03:39:00,38.3,33.0,29.87,SSW,201,0.0,0.0,80,0.00,,,0.00,0,weatherlink.com 1.10,2013-04-12 09:39:00,
2013-04-12 03:54:00,37.3,32.0,29.86,SSW,201,0.0,1.0,82,0.00,,,0.00,0,weatherlink.com 1.10,2013-04-12 09:54:00,
2013-04-12 04:09:00,36.3,32.0,29.86,SSW,201,0.0,1.0,84,0.00,,,0.00,0,weatherlink.com 1.10,2013-04-12 10:09:00,
2013-04-12 04:24:00,35.5,32.0,29.86,SSW,201,0.0,0.0,86,0.00,,,0.00,0,weatherlink.com 1.10,2013-04-12 10:24:00,
2013-04-12 04:39:00,35.0,32.0,29.86,SSW,201,0.0,0.0,87,0.00,,,0.00,0,weatherlink.com 1.10,2013-04-12 10:39:00,
2013-04-12 04:54:00,34.5,31.0,29.86,SSW,201,0.0,1.0,88,0.00,,,0.00,0,weatherlink.com 1.10,2013-04-12 10:54:00,
2013-04-12 05:09:00,34.0,31.0,29.86,SSW,201,0.0,0.0,89,0.00,,,0.00,0,weatherlink.com 1.10,2013-04-12 11:09:00,
2013-04-12 05:24:00,33.7,31.0,29.86,SSW,201,0.0,1.0,89,0.00,,,0.00,0,weatherlink.com 1.10,2013-04-12 11:24:00,
2013-04-12 05:39:00,33.4,31.0,29.85,SSW,201,0.0,2.0,89,0.00,,,0.00,0,weatherlink.com 1.10,2013-04-12 11:39:00,
2013-04-12 05:54:00,33.0,30.0,29.85,SSW,206,0.0,2.0,90,0.00,,,0.00,0,weatherlink.com 1.10,2013-04-12 11:54:00,
2013-04-12 06:09:00,32.7,30.0,29.85,SSW,206,0.0,2.0,91,0.00,,,0.00,0,weatherlink.com 1.10,2013-04-12 12:09:00,
2013-04-12 06:24:00,32.3,30.0,29.85,SSW,206,1.0,1.0,91,0.00,,,0.00,0,weatherlink.com 1.10,2013-04-12 12:24:00,
2013-04-12 06:39:00,32.0,30.0,29.85,SSW,206,0.0,2.0,91,0.00,,,0.00,9,weatherlink.com 1.10,2013-04-12 12:39:00,
2013-04-12 06:54:00,32.0,30.0,29.84,SSW,206,0.0,1.0,91,0.00,,,0.00,14,weatherlink.com 1.10,2013-04-12 12:54:00,
2013-04-12 07:09:00,32.5,30.0,29.85,SSW,209,1.0,2.0,91,0.00,,,0.00,39,weatherlink.com 1.10,2013-04-12 13:09:00,
2013-04-12 07:24:00,33.6,31.0,29.84,WNW,289,2.0,3.0,90,0.00,,,0.00,121,weatherlink.com 1.10,2013-04-12 13:24:00,
2013-04-12 07:39:00,35.3,32.0,29.85,NW,323,0.0,3.0,88,0.00,,,0.00,93,weatherlink.com 1.10,2013-04-12 13:39:00,
2013-04-12 07:54:00,36.8,32.0,29.85,North,355,2.0,2.0,82,0.00,,,0.00,81,weatherlink.com 1.10,2013-04-12 13:54:00,
2013-04-12 08:09:00,38.1,30.0,29.85,NNE,28,0.0,3.0,73,0.00,,,0.00,102,weatherlink.com 1.10,2013-04-12 14:09:00,
2013-04-12 08:24:00,38.4,29.0,29.84,NNE,30,0.0,2.0,70,0.00,,,0.00,163,weatherlink.com 1.10,2013-04-12 14:24:00,
2013-04-12 08:39:00,39.3,30.0,29.85,ESE,102,0.0,2.0,69,0.00,,,0.00,381,weatherlink.com 1.10,2013-04-12 14:39:00,
2013-04-12 08:54:00,40.7,29.0,29.84,SE,141,0.0,3.0,64,0.00,,,0.00,225,weatherlink.com 1.10,2013-04-12 14:54:00,
2013-04-12 09:09:00,41.4,30.0,29.84,SE,132,0.0,2.0,64,0.00,,,0.00,186,weatherlink.com 1.10,2013-04-12 15:09:00,
2013-04-12 09:25:00,42.0,30.0,29.84,ENE,71,1.0,3.0,62,0.00,,,0.00,573,weatherlink.com 1.10,2013-04-12 15:25:00,
2013-04-12 09:40:00,43.8,29.0,29.84,NNW,328,1.0,4.0,56,0.00,,,0.00,631,weatherlink.com 1.10,2013-04-12 15:40:00,
2013-04-12 09:55:00,44.7,30.0,29.83,WSW,243,1.0,4.0,57,0.00,,,0.00,656,weatherlink.com 1.10,2013-04-12 15:55:00,
2013-04-12 10:10:00,47.0,30.0,29.83,WSW,244,3.0,5.0,52,0.00,,,0.00,700,weatherlink.com 1.10,2013-04-12 16:10:00,
2013-04-12 10:25:00,45.5,29.0,29.83,SSW,209,0.0,3.0,53,0.00,,,0.00,229,weatherlink.com 1.10,2013-04-12 16:25:00,
2013-04-12 10:40:00,46.9,29.0,29.83,WNW,301,1.0,3.0,51,0.00,,,0.00,752,weatherlink.com 1.10,2013-04-12 16:40:00,
2013-04-12 10:55:00,48.9,30.0,29.82,East,88,0.0,7.0,49,0.00,,,0.00,738,weatherlink.com 1.10,2013-04-12 16:55:00,
2013-04-12 11:10:00,51.7,31.0,29.81,South,171,2.0,5.0,45,0.00,,,0.00,807,weatherlink.com 1.10,2013-04-12 17:10:00,
2013-04-12 11:25:00,52.4,31.0,29.81,SW,222,3.0,6.0,45,0.00,,,0.00,874,weatherlink.com 1.10,2013-04-12 17:25:00,
2013-04-12 11:40:00,52.4,30.0,29.82,West,281,2.0,7.0,43,0.00,,,0.00,703,weatherlink.com 1.10,2013-04-12 17:40:00,
2013-04-12 11:55:00,55.4,23.0,29.81,WSW,240,12.0,19.0,28,0.00,,,0.00,997,weatherlink.com 1.10,2013-04-12 17:55:00,
2013-04-12 12:10:00,56.7,23.0,29.81,WNW,302,7.0,19.0,27,0.00,,,0.00,308,weatherlink.com 1.10,2013-04-12 18:10:00,
2013-04-12 12:25:00,56.3,21.0,29.81,NW,317,3.0,14.0,25,0.00,,,0.00,983,weatherlink.com 1.10,2013-04-12 18:25:00,
2013-04-12 13:40:00,58.6,21.0,29.80,WNW,292,3.0,12.0,23,0.00,,,0.00,983,weatherlink.com 1.10,2013-04-12 19:40:00,
2013-04-12 13:55:00,59.6,20.0,29.80,North,355,17.0,17.0,22,0.00,,,0.00,1042,weatherlink.com 1.10,2013-04-12 19:55:00,
2013-04-12 14:10:00,59.1,21.0,29.80,North,349,12.0,12.0,23,0.00,,,0.00,357,weatherlink.com 1.10,2013-04-12 20:10:00,
2013-04-12 14:25:00,57.4,18.0,29.81,North,350,5.0,14.0,21,0.00,,,0.00,186,weatherlink.com 1.10,2013-04-12 20:25:00,
2013-04-12 14:40:00,54.2,31.0,29.83,North,350,18.0,22.0,42,0.00,,,0.00,148,weatherlink.com 1.10,2013-04-12 20:40:00,
2013-04-12 14:55:00,50.0,34.0,29.86,NNE,24,10.0,18.0,55,0.00,,,0.00,204,weatherlink.com 1.10,2013-04-12 20:55:00,
2013-04-12 15:10:00,48.3,33.0,29.86,NNW,329,8.0,18.0,56,0.00,,,0.00,211,weatherlink.com 1.10,2013-04-12 21:10:00,
2013-04-12 15:25:00,49.3,34.0,29.86,NNE,13,9.0,16.0,55,0.00,,,0.00,323,weatherlink.com 1.10,2013-04-12 21:25:00,
2013-04-12 15:40:00,50.7,33.0,29.86,North,355,4.0,19.0,51,0.00,,,0.00,738,weatherlink.com 1.10,2013-04-12 21:40:00,
2013-04-12 15:55:00,51.7,32.0,29.86,ENE,65,10.0,10.0,48,0.00,,,0.00,751,weatherlink.com 1.10,2013-04-12 21:55:00,
2013-04-12 16:10:00,50.8,32.0,29.86,NNW,329,6.0,11.0,49,0.00,,,0.00,146,weatherlink.com 1.10,2013-04-12 22:10:00,
2013-04-12 16:25:00,50.2,32.0,29.86,NE,43,2.0,8.0,50,0.00,,,0.00,657,weatherlink.com 1.10,2013-04-12 22:25:00,
2013-04-12 16:40:00,51.1,31.0,29.85,East,88,1.0,12.0,47,0.00,,,0.00,622,weatherlink.com 1.10,2013-04-12 22:40:00,
2013-04-12 16:55:00,52.6,32.0,29.86,ENE,61,4.0,9.0,46,0.00,,,0.00,684,weatherlink.com 1.10,2013-04-12 22:55:00,
2013-04-12 17:10:00,49.3,32.0,29.87,NNE,15,2.0,9.0,51,0.00,,,0.00,109,weatherlink.com 1.10,2013-04-12 23:10:00,
2013-04-12 17:25:00,50.9,32.0,29.87,NE,51,4.0,14.0,48,0.00,,,0.00,522,weatherlink.com 1.10,2013-04-12 23:25:00,
2013-04-12 17:40:00,48.3,31.0,29.88,NNE,30,1.0,11.0,52,0.00,,,0.00,83,weatherlink.com 1.10,2013-04-12 23:40:00,
2013-04-12 17:55:00,47.6,31.0,29.88,NNE,17,5.0,8.0,54,0.00,,,0.00,227,weatherlink.com 1.10,2013-04-12 23:55:00,
2013-04-12 18:10:00,49.0,32.0,29.88,NNE,31,1.0,10.0,52,0.00,,,0.00,98,weatherlink.com 1.10,2013-04-13 00:10:00,
2013-04-12 18:25:00,47.8,32.0,29.88,East,100,0.0,6.0,54,0.00,,,0.00,47,weatherlink.com 1.10,2013-04-13 00:25:00,
2013-04-12 18:40:00,47.1,31.0,29.88,SW,221,2.0,6.0,55,0.00,,,0.00,137,weatherlink.com 1.10,2013-04-13 00:40:00,
2013-04-12 18:55:00,46.2,32.0,29.88,ESE,102,2.0,6.0,57,0.00,,,0.00,26,weatherlink.com 1.10,2013-04-13 00:55:00,
2013-04-12 19:10:00,45.6,31.0,29.89,SSE,166,2.0,7.0,58,0.00,,,0.00,21,weatherlink.com 1.10,2013-04-13 01:10:00,
2013-04-12 19:25:00,45.4,32.0,29.89,East,79,3.0,8.0,59,0.00,,,0.00,9,weatherlink.com 1.10,2013-04-13 01:25:00,
2013-04-12 19:40:00,44.8,31.0,29.89,East,80,2.0,7.0,60,0.00,,,0.00,0,weatherlink.com 1.10,2013-04-13 01:40:00,
2013-04-12 19:56:00,44.2,32.0,29.90,ENE,63,4.0,9.0,62,0.00,,,0.00,0,weatherlink.com 1.10,2013-04-13 01:56:00,
2013-04-12 20:10:00,43.6,32.0,29.90,SE,132,1.0,4.0,64,0.00,,,0.00,0,weatherlink.com 1.10,2013-04-13 02:10:00,
2013-04-12 20:25:00,43.0,31.0,29.90,ESE,110,2.0,6.0,64,0.00,,,0.00,0,weatherlink.com 1.10,2013-04-13 02:25:00,
2013-04-12 20:41:00,42.4,32.0,29.91,ENE,71,2.0,4.0,67,0.00,,,0.00,0,weatherlink.com 1.10,2013-04-13 02:41:00,
2013-04-12 20:56:00,41.6,32.0,29.91,ENE,71,2.0,5.0,69,0.00,,,0.00,0,weatherlink.com 1.10,2013-04-13 02:56:00,
2013-04-12 21:11:00,40.9,32.0,29.91,East,91,2.0,3.0,71,0.00,,,0.00,0,weatherlink.com 1.10,2013-04-13 03:11:00,
2013-04-12 21:26:00,40.4,32.0,29.91,East,96,0.0,3.0,72,0.00,,,0.00,0,weatherlink.com 1.10,2013-04-13 03:26:00,
2013-04-12 21:41:00,39.9,32.0,29.91,ESE,109,0.0,3.0,74,0.00,,,0.00,0,weatherlink.com 1.10,2013-04-13 03:41:00,
2013-04-12 21:56:00,39.5,32.0,29.92,SE,127,0.0,2.0,75,0.00,,,0.00,0,weatherlink.com 1.10,2013-04-13 03:56:00,
2013-04-12 22:11:00,39.2,33.0,29.91,SE,138,0.0,4.0,78,0.00,,,0.00,0,weatherlink.com 1.10,2013-04-13 04:11:00,
2013-04-12 22:26:00,38.7,32.0,29.91,SE,136,2.0,2.0,78,0.00,,,0.00,0,weatherlink.com 1.10,2013-04-13 04:26:00,
2013-04-12 22:41:00,38.0,32.0,29.91,ESE,103,0.0,3.0,80,0.00,,,0.00,0,weatherlink.com 1.10,2013-04-13 04:41:00,
2013-04-12 22:56:00,37.6,33.0,29.91,ESE,110,0.0,2.0,82,0.00,,,0.00,0,weatherlink.com 1.10,2013-04-13 04:56:00,
2013-04-12 23:11:00,37.1,32.0,29.90,ESE,110,0.0,2.0,82,0.00,,,0.00,0,weatherlink.com 1.10,2013-04-13 05:11:00,
2013-04-12 23:26:00,37.2,33.0,29.90,ESE,110,0.0,2.0,83,0.00,,,0.00,0,weatherlink.com 1.10,2013-04-13 05:26:00,
2013-04-12 23:41:00,36.8,32.0,29.90,ESE,110,0.0,0.0,83,0.00,,,0.00,0,weatherlink.com 1.10,2013-04-13 05:41:00,
2013-04-12 23:56:00,35.6,31.0,29.89,ESE,110,0.0,1.0,84,0.00,,,0.00,0,weatherlink.com 1.10,2013-04-13 05:56:00,